Terminal Aerodrome Forecast
Issued by NWS Miami, FL

Home | Current Version | Previous Version | Text Only | Print | Product List | Glossary On
Versions: 1 2 3 4 5 6 7 8 9 10 11 12 13 14 15 16 17 18 19 20 21 22 23 24 25 26 27 28 29 30 31 32 33 34 35 36 37 38 39 40 41 42 43 44 45 46 47 48
000
FTUS42 KMFL 300921 AAA
TAFFLL
TAF AMD
KFLL 300921Z 3009/3106 23005KT P6SM FEW027 SCT250
     FM301400 25006KT P6SM VCSH SCT030 SCT060 BKN250
     FM301700 16009KT P6SM VCTS SCT030CB BKN060 BKN250
     FM310000 21006KT P6SM SCT030 BKN100 BKN250=

USA.gov is the U.S. government's official web portal to all federal, state and local government web resources and services.